Orbital Elements at Epoch 2459000.5 (2020-May-31.0) TDB
Reference: JPL 15 (heliocentric ecliptic J2000)
Element | Value | Uncertainty (1-sigma) | Units |
e | .191202509426188 | 5.5808e-08 | |
a | 3.006485221615866 | 2.9426e-08 | au |
q | 2.431637702690164 | 1.7889e-07 | au |
i | 9.522176485592393 | 5.1924e-06 | deg |
node | 38.94195003456772 | 3.4961e-05 | deg |
peri | 339.899592818831 | 3.8189e-05 | deg |
M | 14.74397329436823 | 1.7017e-05 | deg |
tp | 2458922.517155617867 (2020-Mar-14.01715562) | 8.9388e-05 | TDB |
period | 1904.088091931859 5.21 | 2.7954e-05 7.653e-08 | d yr |
n | .1890668827379459 | 2.7757e-09 | deg/d |
Q | 3.581332740541569 | 3.5052e-08 | au |
|
| | Orbit Determination Parameters
Additional Information
|